Weather History for Lancaster, CA

Change the Weather History Date:

Monday, July 1, 2013

  Actual Average Record
Temperature  
Mean Temperature 91 °F 80 °F  
Max Temperature 104 °F 95 °F 109 °F (1950)
Min Temperature 77 °F 65 °F 51 °F (1969)
Degree Days  
Heating Degree Days 0    
Month to date heating degree days 0  
Since 1 June heating degree days 0  
Since 1 July heating degree days 0  
Cooling Degree Days 26    
Month to date cooling degree days 26  
Year to date cooling degree days 751  
Since 1 June cooling degree days 493  
Growing Degree Days 40 (Base 50)    
Moisture  
Dew Point 47 °F    
Average Humidity 26    
Maximum Humidity 37    
Minimum Humidity 15    
Precipitation  
Precipitation 0.00 in 0.00 in 0.00 in (2014)
Month to date precipitation 0.00 0.00  
Year to date precipitation 1.10 4.91  
Since 1 July precipitation 0.00 0.00  
Snow  
Snow 0.00 in - 0.00 in ()
Month to date snowfall 0.0  
Since 1 June snowfall 0.0  
Since 1 July snowfall 0.0  
Snow Depth 0.00 in    
Sea Level Pressure  
Sea Level Pressure 29.81 in    
Wind  
Wind Speed 14 mph (WSW)    
Max Wind Speed 30 mph    
Max Gust Speed 37 mph    
Visibility 10 miles    
Events      
T = Trace of Precipitation, MM = Missing Value Source: NWS Daily Summary

Daily Weather History Graph

Daily Weather History Graph

Search for Another Location

Airport:

Trip Planner

Search our weather history database for the weather conditions in past years. The results will help you decide how hot, cold, wet, or windy it might be!

Date:

Astronomy

Jul. 01, 2013 Rise Set
Actual Time 5:43 AM PDT 8:10 PM PDT
Civil Twilight 5:13 AM PDT 8:39 PM PDT
Nautical Twilight 4:37 AM PDT 9:15 PM PDT
Astronomical Twilight 3:57 AM PDT 9:55 PM PDT
Moon 1:06 AM PDT (7/1) 2:37 PM PDT (7/1)
Length of Visible Light 15h 25m
Length of Day
14h 26m
Waning Crescent, 34% of the Moon is Illuminated
Jul 1
Waning Crescent
Jul 8
New
Jul 15
First Quarter
Jul 22
Full
Jul 29
Last Quarter

Hourly Weather History & Observations

Time (PDT) Temp. Dew Point Humidity Pressure Visibility Wind Dir Wind Speed Gust Speed Precip Events Conditions
12:56 AM 82.0 °F 46.9 °F 29% 29.77 in 10.0 mi West 9.2 mph - N/A   Clear
1:56 AM 81.0 °F 46.0 °F 29% 29.75 in 10.0 mi Calm Calm - N/A   Clear
2:56 AM 79.0 °F 46.9 °F 32% 29.75 in 10.0 mi Calm Calm - N/A   Clear
3:56 AM 81.0 °F 48.9 °F 33% 29.76 in 10.0 mi WSW 6.9 mph - N/A   Clear
4:56 AM 80.1 °F 48.0 °F 32% 29.78 in 10.0 mi Calm Calm - N/A   Clear
5:56 AM 78.1 °F 50.0 °F 37% 29.80 in 10.0 mi West 6.9 mph - N/A   Clear
6:56 AM 78.1 °F 46.9 °F 33% 29.84 in 10.0 mi ENE 5.8 mph - N/A   Clear
7:56 AM 82.9 °F 48.9 °F 31% 29.86 in 10.0 mi WNW 3.5 mph - N/A   Clear
8:56 AM 90.0 °F 48.9 °F 24% 29.85 in 10.0 mi WNW 12.7 mph - N/A   Clear
9:56 AM 93.0 °F 48.0 °F 21% 29.83 in 10.0 mi WNW 13.8 mph - N/A   Clear
10:56 AM 100.0 °F 48.0 °F 17% 29.83 in 10.0 mi West 12.7 mph - N/A   Clear
11:56 AM 100.9 °F 46.0 °F 15% 29.82 in 10.0 mi West 17.3 mph - N/A   Clear
12:56 PM 100.9 °F 44.1 °F 14% 29.81 in 10.0 mi West 18.4 mph - N/A   Clear
1:56 PM 102.0 °F 46.0 °F 15% 29.80 in 10.0 mi SW 18.4 mph - N/A   Clear
2:56 PM 102.0 °F 46.0 °F 15% 29.79 in 10.0 mi SW 25.3 mph 34.5 mph N/A   Clear
3:56 PM 100.0 °F 46.0 °F 16% 29.79 in 10.0 mi SW 26.5 mph 33.4 mph N/A   Clear
4:56 PM 98.1 °F 46.0 °F 17% 29.79 in 10.0 mi SW 24.2 mph 34.5 mph N/A   Clear
5:56 PM 96.1 °F 46.0 °F 18% 29.80 in 10.0 mi WSW 24.2 mph 32.2 mph N/A   Clear
6:56 PM 95.0 °F 43.0 °F 17% 29.81 in 10.0 mi WSW 20.7 mph 31.1 mph N/A   Clear
7:56 PM 91.0 °F 46.9 °F 22% 29.83 in 10.0 mi WSW 19.6 mph - N/A   Clear
8:56 PM 88.0 °F 46.0 °F 23% 29.84 in 10.0 mi SW 16.1 mph 21.9 mph N/A   Clear
9:56 PM 84.9 °F 48.9 °F 29% 29.86 in 10.0 mi WSW 13.8 mph 21.9 mph N/A   Clear
10:56 PM 84.0 °F 46.9 °F 27% 29.85 in 10.0 mi SW 17.3 mph - N/A   Clear
11:56 PM 84.0 °F 46.9 °F 27% 29.85 in 10.0 mi WSW 11.5 mph - N/A   Clear